DMSP 5D-3 F16 (USA 172)

Last updated on Thu Oct 30 2025 00:02:23 GMT+0000 (Coordinated Universal Time)

1 28054U 03048A 25302.50644178 .00000160 00000+0 10724-3 0 9994 2 28054 99.0090 319.6057 0008218 82.1822 74.5459 14.14400012136877
UTC large
Height (km)
Speed (km/s)
/
Latitude / Longitude
Inclination (degrees)
Orbital Period (minutes)
Azimuth
Elevation
Range (km)
Doppler Factor

Next 0 passes for location: London (51.5072 / 0.1276)

Sorry there are no passes over London.